Back to catalog

STARLINK-34555

AliveCommunicationsVLEO
NORAD 64665·PAYLOAD·🇺🇸 United States

Launched Jun 28, 2025 from Cape Canaveral Space Force Station

Loading…

Next Passes (next 24 hours)

TLE

FreshSource: CelesTrak SupGP

Epoch: Sep 14, 2026, 14:47 UTC

1 64665C 25139B   26257.61645833  .00009084  00000+0  26850-3 0  2576
2 64665  53.1601 325.3933 0001234  77.3273  63.8974 15.34373513    15

Track STARLINK-34555 in real time with AllMySat

Download on the App Store